[[{"header":{"parameterUnit":"m.s-1","parameterCategory":1,"la1":30.2992,"la2":30.254,"lo1":-89.0895,"lo2":-89.0443,"dy":0.0025,"dx":0.0025,"nx":19,"ny":19,"refTime":"2026-05-01T09:00:00:Z","depth":0,"parameterNumber":2,"parameterNumberName":"U-component_of_WINDS"},"data":[0,0,0,-0.5492,-0.5493,-0.5516,-0.5516,-0.5556,-0.5556,0,0,0,0,0,0,0,0,0,0,0,-0.5491,-0.5491,-0.5492,-0.5493,-0.5516,-0.5516,-0.5556,-0.5556,0,0,0,0,0,0,0,0,0,0,0,-0.5491,-0.5491,-0.5492,-0.5493,-0.5516,-0.5516,-0.5556,-0.5535,0,0,0,0,0,0,0,0,0,0,-0.551,-0.5514,-0.5491,-0.5492,-0.5493,-0.5516,-0.5516,-0.5534,-0.5536,-0.5549,0,-0.5562,0,-0.556,-0.556,-0.556,0,0,0,-0.5489,-0.5512,-0.5514,-0.5492,-0.5493,-0.5516,-0.5505,-0.5535,-0.5538,-0.5553,-0.5563,-0.5564,-0.556,-0.556,-0.556,-0.5647,-0.5648,0,0,-0.5488,-0.5498,-0.5512,-0.5516,-0.5512,-0.5504,-0.5505,-0.5536,-0.5548,-0.5563,-0.5564,-0.5561,-0.556,-0.5561,-0.5647,-0.5647,0,0,0,-0.5487,-0.5498,-0.5498,-0.5514,-0.5518,-0.5505,-0.5506,-0.5547,-0.5546,-0.5565,-0.5562,-0.556,-0.5561,-0.5646,-0.5647,-0.5686,0,0,0,-0.5486,-0.5497,-0.5497,-0.5504,-0.5517,-0.5532,-0.5516,-0.5544,-0.5547,-0.5561,-0.556,-0.5561,-0.5645,-0.5647,-0.5684,-0.5704,0,0,0,-0.5487,-0.5497,-0.5502,-0.5505,-0.5515,-0.5532,-0.5532,-0.5544,-0.5545,-0.556,-0.5562,-0.5645,-0.5646,-0.5682,-0.57,-0.573,0,0,0,-0.5493,-0.5537,-0.5503,-0.5551,-0.5515,-0.5555,-0.5532,-0.5562,-0.5579,-0.5561,-0.5646,-0.5647,-0.5681,-0.5698,-0.5728,-0.5758,-0.5771,0,0,-0.5555,-0.5545,-0.5573,-0.5543,-0.5592,-0.5551,-0.5606,-0.5612,-0.5605,-0.5634,-0.5636,-0.5685,-0.57,-0.573,-0.584,-0.5851,0,0,0,-0.5596,-0.5616,-0.5627,-0.5643,-0.5648,-0.5654,-0.565,-0.5652,-0.5676,-0.5621,-0.5703,-0.5711,-0.5728,-0.5743,-0.5752,-0.5766,-0.5653,-0.5653,-0.5653,-0.5701,-0.5687,-0.5732,-0.5721,-0.5737,-0.5732,-0.5744,-0.5745,-0.5728,-0.5747,-0.5757,-0.5825,-0.5842,-0.5848,-0.5863,-0.577,-0.577,-0.577,-0.5771,-0.5792,-0.5819,-0.5792,-0.5826,-0.5812,-0.584,-0.5837,-0.5823,-0.5848,-0.5817,-0.5831,-0.58,-0.586,-0.5873,-0.5773,-0.5773,-0.5772,-0.5772,-0.5772,-0.586,-0.5871,-0.5871,-0.5892,-0.591,-0.5897,-0.5922,-0.5907,-0.5894,-0.5908,-0.5916,-0.5916,-0.5914,-0.5913,-0.5913,-0.5913,-0.5913,-0.5913,-0.5914,-0.5932,-0.5931,-0.5953,-0.5961,-0.5969,-0.5977,-0.5971,-0.5979,-0.5984,-0.5971,-0.5971,-0.5952,-0.5868,-0.5848,-0.5917,-0.5917,-0.5916,-0.5916,-0.5916,-0.6032,-0.6006,-0.6041,-0.6049,-0.6056,-0.6075,-0.6055,-0.6071,-0.6075,-0.6088,-0.6065,-0.6004,-0.5994,-0.5987,-0.597,-0.6067,-0.6067,-0.6067,-0.6067,-0.609,-0.6083,-0.6114,-0.6128,-0.6139,-0.6124,-0.6164,-0.6159,-0.615,-0.6152,-0.6135,-0.6111,-0.6105,-0.6098,-0.6089,-0.6073,-0.6194,-0.6194,-0.6194,-0.6151,-0.6144,-0.6181,-0.6171,-0.6175,-0.6179,-0.6216,-0.6233,-0.6217,-0.6199,-0.6153,-0.6148,-0.6109,-0.6097,-0.608,-0.6065,-0.6036,0,0]},{"header":{"parameterUnit":"m.s-1","parameterCategory":1,"la1":30.2992,"la2":30.254,"lo1":-89.0895,"lo2":-89.0443,"dy":0.0025,"dx":0.0025,"nx":19,"ny":19,"refTime":"2026-05-01T09:00:00:Z","depth":0,"parameterNumber":3,"parameterNumberName":"V-component_of_WINDS"},"data":[0,0,0,-7.2814,-7.2816,-7.2914,-7.2915,-7.305,-7.3051,0,0,0,0,0,0,0,0,0,0,0,-7.2793,-7.2795,-7.2814,-7.2817,-7.2914,-7.2915,-7.3049,-7.3051,0,0,0,0,0,0,0,0,0,0,0,-7.2793,-7.2794,-7.2796,-7.2817,-7.2914,-7.2915,-7.3049,-7.2971,0,0,0,0,0,0,0,0,0,0,-7.2874,-7.2863,-7.2794,-7.2796,-7.2818,-7.2914,-7.2915,-7.2967,-7.2976,-7.301,0,-7.3045,0,-7.3051,-7.3061,-7.3061,0,0,0,-7.281,-7.2856,-7.2876,-7.2796,-7.2819,-7.2914,-7.2868,-7.2972,-7.2982,-7.3022,-7.3047,-7.3052,-7.3053,-7.3062,-7.3063,-7.3291,-7.3292,0,0,-7.2804,-7.2814,-7.2869,-7.2883,-7.2871,-7.2865,-7.2871,-7.2978,-7.3004,-7.3047,-7.3055,-7.3055,-7.3063,-7.3064,-7.329,-7.3291,0,0,0,-7.2793,-7.2811,-7.2828,-7.2877,-7.2895,-7.2868,-7.2875,-7.3,-7.3004,-7.3056,-7.3057,-7.3064,-7.3066,-7.3288,-7.329,-7.3372,0,0,0,-7.279,-7.2805,-7.2826,-7.2833,-7.2893,-7.2949,-7.2895,-7.2997,-7.3009,-7.3056,-7.3064,-7.3067,-7.3287,-7.3289,-7.3366,-7.3408,0,0,0,-7.2784,-7.2804,-7.2821,-7.2833,-7.2876,-7.2947,-7.2957,-7.2999,-7.301,-7.3062,-7.3067,-7.3286,-7.3289,-7.3361,-7.3399,-7.3473,0,0,0,-7.278,-7.2889,-7.2823,-7.2945,-7.2875,-7.2997,-7.2957,-7.3046,-7.31,-7.3065,-7.3287,-7.329,-7.3359,-7.3394,-7.3467,-7.3537,-7.3567,0,0,-7.2923,-7.2906,-7.2978,-7.2921,-7.3058,-7.2981,-7.3129,-7.3167,-7.316,-7.3247,-7.3253,-7.3368,-7.3399,-7.3471,-7.3728,-7.3752,0,0,0,-7.3026,-7.3078,-7.3112,-7.3166,-7.32,-7.3233,-7.3248,-7.3262,-7.3336,-7.3208,-7.3413,-7.3431,-7.3473,-7.3506,-7.3526,-7.3562,-7.3306,-7.3305,-7.3305,-7.3243,-7.3233,-7.335,-7.3353,-7.3405,-7.3421,-7.3463,-7.3485,-7.3455,-7.3504,-7.353,-7.3687,-7.3726,-7.3741,-7.3779,-7.3565,-7.3565,-7.3565,-7.3566,-7.3452,-7.3524,-7.3487,-7.3589,-7.3577,-7.366,-7.368,-7.3657,-7.3733,-7.3666,-7.3703,-7.3632,-7.3768,-7.38,-7.3572,-7.3571,-7.357,-7.3569,-7.3569,-7.3594,-7.3627,-7.3645,-7.3724,-7.3786,-7.3783,-7.3859,-7.3844,-7.383,-7.3866,-7.3893,-7.3891,-7.3889,-7.388,-7.388,-7.3881,-7.3881,-7.3882,-7.3882,-7.3733,-7.3751,-7.3819,-7.3867,-7.3901,-7.3944,-7.3963,-7.3996,-7.4027,-7.401,-7.401,-7.3978,-7.3783,-7.3735,-7.389,-7.3889,-7.3888,-7.3887,-7.3887,-7.3951,-7.39,-7.4004,-7.404,-7.4096,-7.4159,-7.414,-7.4208,-7.4232,-7.4271,-7.4231,-7.4089,-7.407,-7.4054,-7.4014,-7.4232,-7.4232,-7.4232,-7.4232,-7.4071,-7.4061,-7.4166,-7.4223,-7.4277,-7.4271,-7.4389,-7.4405,-7.4413,-7.4428,-7.4394,-7.434,-7.4324,-7.4314,-7.4292,-7.4255,-7.453,-7.453,-7.453,-7.4205,-7.42,-7.4304,-7.4315,-7.4359,-7.4396,-7.4507,-7.4572,-7.457,-7.4542,-7.4439,-7.4427,-7.4339,-7.4311,-7.428,-7.4246,-7.4177,0,0]}]]